Time,TemperatureF,DewpointF,PressureIn,WindDirection,WindDirectionDegrees,WindSpeedMPH,WindSpeedGustMPH,Humidity,HourlyPrecipIn,Conditions,Clouds,dailyrainin,SoftwareType,DateUTC
2013-09-12 00:01:00,69.3,68.1,29.90,ENE,75,1.0,2.0,96,0.35,,FEW070,0.35,VWS V13.01,2013-09-12 04:01:00,
2013-09-12 00:02:00,69.3,68.1,29.90,ENE,75,0.0,2.0,96,0.35,,FEW070,0.00,VWS V13.01,2013-09-12 04:02:00,
2013-09-12 00:04:00,69.3,68.1,29.90,ENE,75,1.0,1.0,96,0.17,,FEW070,0.00,VWS V13.01,2013-09-12 04:04:00,
2013-09-12 00:09:00,69.3,68.4,29.90,ENE,75,0.0,1.0,97,0.17,,FEW070,0.00,VWS V13.01,2013-09-12 04:09:00,
2013-09-12 00:14:00,69.4,68.5,29.90,ENE,75,0.0,1.0,97,0.17,,FEW070,0.00,VWS V13.01,2013-09-12 04:14:00,
2013-09-12 00:20:00,69.6,68.7,29.91,ENE,75,0.0,1.0,97,0.17,,FEW070,0.00,VWS V13.01,2013-09-12 04:20:00,
2013-09-12 00:25:00,69.7,68.8,29.91,ENE,75,0.0,1.0,97,0.17,,FEW070,0.00,VWS V13.01,2013-09-12 04:25:00,
2013-09-12 00:30:00,69.7,68.8,29.90,ENE,75,0.0,1.0,97,0.17,,FEW070,0.00,VWS V13.01,2013-09-12 04:30:00,
2013-09-12 00:35:00,69.7,68.8,29.89,ENE,75,0.0,0.0,97,0.00,,FEW070,0.00,VWS V13.01,2013-09-12 04:35:00,
2013-09-12 00:40:00,69.7,68.8,29.88,ENE,75,0.0,1.0,97,0.00,,FEW070,0.00,VWS V13.01,2013-09-12 04:40:00,
2013-09-12 00:45:00,69.6,68.7,29.88,ENE,75,0.0,1.0,97,0.00,,FEW070,0.00,VWS V13.01,2013-09-12 04:45:00,
2013-09-12 00:50:00,69.5,68.6,29.87,ENE,75,0.0,1.0,97,0.00,,FEW070,0.00,VWS V13.01,2013-09-12 04:50:00,
2013-09-12 00:55:00,69.5,68.6,29.87,ENE,75,0.0,1.0,97,0.00,,FEW070,0.00,VWS V13.01,2013-09-12 04:55:00,
2013-09-12 01:00:00,69.4,68.5,29.87,ENE,75,0.0,2.0,97,0.00,,FEW070,0.00,VWS V13.01,2013-09-12 05:00:00,
2013-09-12 01:05:00,69.3,68.4,29.87,ENE,75,0.0,0.0,97,0.00,,SCT070,0.00,VWS V13.01,2013-09-12 05:05:00,
2013-09-12 01:10:00,69.3,68.4,29.86,ENE,75,0.0,0.0,97,0.00,,SCT070,0.00,VWS V13.01,2013-09-12 05:10:00,
2013-09-12 01:15:00,69.2,68.3,29.86,ENE,75,0.0,0.0,97,0.00,,SCT070,0.00,VWS V13.01,2013-09-12 05:15:00,
2013-09-12 01:20:00,69.1,68.2,29.86,ENE,75,0.0,0.0,97,0.00,,SCT070,0.00,VWS V13.01,2013-09-12 05:20:00,
2013-09-12 01:25:00,69.0,68.1,29.86,ENE,75,0.0,0.0,97,0.00,,SCT070,0.00,VWS V13.01,2013-09-12 05:25:00,
2013-09-12 01:30:00,69.0,68.1,29.86,ENE,75,0.0,0.0,97,0.00,,SCT070,0.00,VWS V13.01,2013-09-12 05:30:00,
2013-09-12 01:35:00,68.9,68.0,29.86,ENE,75,0.0,0.0,97,0.00,,SCT070,0.00,VWS V13.01,2013-09-12 05:35:00,
2013-09-12 01:40:00,68.8,67.9,29.86,ENE,75,0.0,0.0,97,0.00,,SCT070,0.00,VWS V13.01,2013-09-12 05:40:00,
2013-09-12 01:45:00,68.8,67.9,29.86,ENE,75,0.0,0.0,97,0.00,,SCT070,0.00,VWS V13.01,2013-09-12 05:45:00,
2013-09-12 01:50:00,68.7,67.8,29.85,ENE,75,0.0,1.0,97,0.00,,SCT070,0.00,VWS V13.01,2013-09-12 05:50:00,
2013-09-12 01:55:00,68.6,67.7,29.86,ENE,75,0.0,1.0,97,0.00,,SCT070,0.00,VWS V13.01,2013-09-12 05:55:00,
2013-09-12 02:00:00,68.6,67.7,29.85,ENE,75,0.0,1.0,97,0.00,,BKN090,0.00,VWS V13.01,2013-09-12 06:00:00,
2013-09-12 02:05:00,68.5,67.6,29.85,ENE,75,0.0,1.0,97,0.00,,BKN090,0.00,VWS V13.01,2013-09-12 06:05:00,
2013-09-12 02:10:00,68.5,67.6,29.85,ENE,75,0.0,1.0,97,0.00,,BKN090,0.00,VWS V13.01,2013-09-12 06:10:00,
2013-09-12 02:15:00,68.5,67.6,29.85,ENE,76,0.0,2.0,97,0.00,,BKN090,0.00,VWS V13.01,2013-09-12 06:15:00,
2013-09-12 02:20:00,68.4,67.5,29.84,ENE,76,0.0,2.0,97,0.00,,BKN090,0.00,VWS V13.01,2013-09-12 06:20:00,
2013-09-12 02:25:00,68.3,67.4,29.84,ENE,76,1.0,2.0,97,0.00,,BKN090,0.00,VWS V13.01,2013-09-12 06:25:00,
2013-09-12 02:30:00,68.2,67.3,29.84,ENE,76,0.0,2.0,97,0.00,,BKN090,0.00,VWS V13.01,2013-09-12 06:30:00,
2013-09-12 02:35:00,68.1,67.2,29.83,ENE,76,0.0,0.0,97,0.00,,BKN090,0.00,VWS V13.01,2013-09-12 06:35:00,
2013-09-12 02:40:00,68.0,67.1,29.83,ENE,76,0.0,0.0,97,0.00,,BKN090,0.00,VWS V13.01,2013-09-12 06:40:00,
2013-09-12 02:45:00,68.0,67.1,29.83,ENE,76,1.0,1.0,97,0.00,,BKN090,0.00,VWS V13.01,2013-09-12 06:45:00,
2013-09-12 02:50:00,67.9,67.0,29.82,East,80,0.0,2.0,97,0.00,,BKN090,0.00,VWS V13.01,2013-09-12 06:50:00,
2013-09-12 02:55:00,67.8,66.9,29.82,East,80,0.0,2.0,97,0.00,,BKN090,0.00,VWS V13.01,2013-09-12 06:55:00,
2013-09-12 03:00:00,67.8,66.9,29.82,East,80,2.0,2.0,97,0.00,,FEW100,0.00,VWS V13.01,2013-09-12 07:00:00,
2013-09-12 03:06:00,67.7,66.8,29.82,East,80,0.0,2.0,97,0.00,,FEW100,0.00,VWS V13.01,2013-09-12 07:06:00,
2013-09-12 03:11:00,67.7,66.8,29.82,East,80,1.0,2.0,97,0.00,,FEW100,0.00,VWS V13.01,2013-09-12 07:11:00,
2013-09-12 03:16:00,67.6,66.7,29.82,East,80,0.0,2.0,97,0.00,,FEW100,0.00,VWS V13.01,2013-09-12 07:16:00,
2013-09-12 03:21:00,67.6,66.7,29.82,East,80,0.0,2.0,97,0.00,,FEW100,0.00,VWS V13.01,2013-09-12 07:21:00,
2013-09-12 03:26:00,67.5,66.6,29.81,East,81,0.0,2.0,97,0.01,,FEW100,0.01,VWS V13.01,2013-09-12 07:26:00,
2013-09-12 03:31:00,67.5,66.6,29.82,East,86,0.0,0.0,97,0.01,,FEW100,0.01,VWS V13.01,2013-09-12 07:31:00,
2013-09-12 03:36:00,67.5,66.6,29.81,South,171,0.0,4.0,97,0.01,,FEW100,0.01,VWS V13.01,2013-09-12 07:36:00,
2013-09-12 03:41:00,67.5,66.6,29.81,SE,141,0.0,4.0,97,0.01,,FEW100,0.01,VWS V13.01,2013-09-12 07:41:00,
2013-09-12 03:46:00,67.4,66.5,29.81,SE,141,0.0,4.0,97,0.01,,FEW100,0.01,VWS V13.01,2013-09-12 07:46:00,
2013-09-12 03:51:00,67.4,66.5,29.81,SE,141,0.0,4.0,97,0.01,,FEW100,0.01,VWS V13.01,2013-09-12 07:51:00,
2013-09-12 03:56:00,67.4,66.5,29.81,SE,143,0.0,4.0,97,0.01,,FEW100,0.01,VWS V13.01,2013-09-12 07:56:00,
2013-09-12 04:01:00,67.4,66.5,29.81,SE,143,0.0,0.0,97,0.01,,OVC110,0.01,VWS V13.01,2013-09-12 08:01:00,
2013-09-12 04:06:00,67.4,66.5,29.81,SE,143,0.0,2.0,97,0.01,,OVC110,0.01,VWS V13.01,2013-09-12 08:06:00,
2013-09-12 04:11:00,67.4,66.5,29.81,SE,143,0.0,2.0,97,0.01,,OVC110,0.01,VWS V13.01,2013-09-12 08:11:00,
2013-09-12 04:16:00,67.3,66.4,29.81,SE,143,0.0,2.0,97,0.01,,OVC110,0.01,VWS V13.01,2013-09-12 08:16:00,
2013-09-12 04:21:00,67.3,66.4,29.81,SE,143,0.0,2.0,97,0.01,,OVC110,0.01,VWS V13.01,2013-09-12 08:21:00,
2013-09-12 04:26:00,67.2,66.3,29.81,SE,143,0.0,2.0,97,0.01,,OVC110,0.01,VWS V13.01,2013-09-12 08:26:00,
2013-09-12 04:31:00,67.2,66.3,29.81,SE,143,0.0,1.0,97,0.01,,OVC110,0.01,VWS V13.01,2013-09-12 08:31:00,
2013-09-12 04:36:00,67.2,66.3,29.81,SE,143,0.0,1.0,97,0.00,,OVC110,0.01,VWS V13.01,2013-09-12 08:36:00,
2013-09-12 04:41:00,67.2,66.3,29.81,SE,143,0.0,1.0,97,0.00,,OVC110,0.01,VWS V13.01,2013-09-12 08:41:00,
2013-09-12 04:46:00,67.2,66.3,29.81,SE,143,0.0,1.0,97,0.00,,OVC110,0.01,VWS V13.01,2013-09-12 08:46:00,
2013-09-12 04:51:00,67.2,66.3,29.81,SE,143,0.0,1.0,97,0.00,,OVC110,0.01,VWS V13.01,2013-09-12 08:51:00,
2013-09-12 04:56:00,67.3,66.4,29.81,SE,143,0.0,1.0,97,0.00,,OVC110,0.01,VWS V13.01,2013-09-12 08:56:00,
2013-09-12 05:01:00,67.3,66.4,29.81,SE,143,0.0,0.0,97,0.00,,BKN090,0.01,VWS V13.01,2013-09-12 09:01:00,
2013-09-12 05:06:00,67.4,66.5,29.81,SE,143,0.0,0.0,97,0.00,,BKN090,0.01,VWS V13.01,2013-09-12 09:06:00,
2013-09-12 05:11:00,67.5,66.6,29.80,SE,143,0.0,1.0,97,0.00,,BKN090,0.01,VWS V13.01,2013-09-12 09:11:00,
2013-09-12 05:16:00,67.5,66.6,29.80,SE,143,0.0,1.0,97,0.00,,BKN090,0.01,VWS V13.01,2013-09-12 09:16:00,
2013-09-12 05:21:00,67.6,66.7,29.81,SE,143,0.0,1.0,97,0.00,,BKN090,0.01,VWS V13.01,2013-09-12 09:21:00,
2013-09-12 05:26:00,67.7,66.8,29.81,SE,143,0.0,1.0,97,0.00,,BKN090,0.01,VWS V13.01,2013-09-12 09:26:00,
2013-09-12 05:31:00,67.7,66.8,29.81,SE,143,0.0,0.0,97,0.00,,BKN090,0.01,VWS V13.01,2013-09-12 09:31:00,
2013-09-12 05:36:00,67.7,66.8,29.80,SE,143,0.0,1.0,97,0.00,,BKN090,0.01,VWS V13.01,2013-09-12 09:36:00,
2013-09-12 05:41:00,67.8,66.9,29.80,SE,143,0.0,1.0,97,0.00,,BKN090,0.01,VWS V13.01,2013-09-12 09:41:00,
2013-09-12 05:46:00,68.0,67.1,29.81,SE,143,0.0,2.0,97,0.00,,BKN090,0.01,VWS V13.01,2013-09-12 09:46:00,
2013-09-12 05:51:00,68.2,67.3,29.81,SE,143,0.0,2.0,97,0.00,,BKN090,0.01,VWS V13.01,2013-09-12 09:51:00,
2013-09-12 05:56:00,68.5,67.6,29.81,SE,143,0.0,2.0,97,0.00,,BKN090,0.01,VWS V13.01,2013-09-12 09:56:00,
2013-09-12 06:01:00,68.6,67.7,29.81,SE,143,0.0,0.0,97,0.00,,CLR,0.01,VWS V13.01,2013-09-12 10:01:00,
2013-09-12 06:06:00,68.8,67.9,29.81,SE,143,0.0,0.0,97,0.00,,CLR,0.01,VWS V13.01,2013-09-12 10:06:00,
2013-09-12 06:12:00,68.9,68.0,29.81,SE,143,0.0,0.0,97,0.00,,CLR,0.01,VWS V13.01,2013-09-12 10:12:00,
2013-09-12 06:16:00,69.0,68.1,29.82,SE,143,0.0,0.0,97,0.00,,CLR,0.01,VWS V13.01,2013-09-12 10:16:00,
2013-09-12 06:21:00,69.0,68.1,29.81,SE,143,0.0,0.0,97,0.00,,CLR,0.01,VWS V13.01,2013-09-12 10:21:00,
2013-09-12 06:26:00,68.9,68.0,29.82,SE,143,0.0,0.0,97,0.00,,CLR,0.01,VWS V13.01,2013-09-12 10:26:00,
2013-09-12 06:31:00,68.9,68.0,29.82,SE,143,0.0,0.0,97,0.00,,CLR,0.01,VWS V13.01,2013-09-12 10:31:00,
2013-09-12 06:36:00,69.1,68.2,29.82,SE,143,0.0,0.0,97,0.00,,CLR,0.01,VWS V13.01,2013-09-12 10:36:00,
2013-09-12 06:41:00,69.2,68.3,29.82,SE,143,0.0,0.0,97,0.00,,CLR,0.01,VWS V13.01,2013-09-12 10:41:00,
2013-09-12 06:46:00,69.4,68.5,29.82,SE,143,0.0,0.0,97,0.00,,CLR,0.01,VWS V13.01,2013-09-12 10:46:00,
2013-09-12 06:51:00,69.5,68.6,29.82,SE,143,0.0,0.0,97,0.00,,CLR,0.01,VWS V13.01,2013-09-12 10:51:00,
2013-09-12 06:56:00,69.7,68.8,29.82,SE,143,0.0,0.0,97,0.00,,CLR,0.01,VWS V13.01,2013-09-12 10:56:00,
2013-09-12 07:02:00,69.8,68.9,29.83,SE,143,0.0,0.0,97,0.00,,-RA,0.01,VWS V13.01,2013-09-12 11:02:00,
2013-09-12 07:07:00,69.8,68.9,29.83,SE,143,0.0,0.0,97,0.00,,-RA,0.01,VWS V13.01,2013-09-12 11:07:00,
2013-09-12 07:12:00,69.9,69.0,29.82,SE,143,0.0,1.0,97,0.00,,-RA,0.01,VWS V13.01,2013-09-12 11:12:00,
2013-09-12 07:17:00,69.9,69.0,29.82,SE,143,0.0,1.0,97,0.00,,-RA,0.01,VWS V13.01,2013-09-12 11:17:00,
2013-09-12 07:22:00,70.0,69.1,29.82,SE,143,0.0,1.0,97,0.00,,-RA,0.01,VWS V13.01,2013-09-12 11:22:00,
2013-09-12 07:27:00,70.1,69.2,29.82,SE,143,0.0,1.0,97,0.00,,-RA,0.01,VWS V13.01,2013-09-12 11:27:00,
2013-09-12 07:32:00,70.1,69.2,29.82,SE,143,0.0,0.0,97,0.00,,-RA,0.01,VWS V13.01,2013-09-12 11:32:00,
2013-09-12 07:37:00,70.2,69.3,29.82,SE,143,0.0,0.0,97,0.00,,-RA,0.01,VWS V13.01,2013-09-12 11:37:00,
2013-09-12 07:42:00,70.2,69.3,29.83,SE,143,0.0,1.0,97,0.00,,-RA,0.01,VWS V13.01,2013-09-12 11:42:00,
2013-09-12 07:47:00,70.2,69.3,29.82,SE,143,0.0,1.0,97,0.00,,-RA,0.01,VWS V13.01,2013-09-12 11:47:00,
2013-09-12 07:52:00,70.1,69.2,29.82,SE,143,0.0,1.0,97,0.00,,-RA,0.01,VWS V13.01,2013-09-12 11:52:00,
2013-09-12 07:57:00,70.1,69.2,29.83,SE,143,0.0,1.0,97,0.00,,-RA,0.01,VWS V13.01,2013-09-12 11:57:00,
2013-09-12 08:02:00,70.1,69.2,29.83,SE,143,0.0,0.0,97,0.00,,,0.01,VWS V13.01,2013-09-12 12:02:00,
2013-09-12 08:07:00,70.1,69.2,29.83,SE,143,0.0,0.0,97,0.00,,,0.01,VWS V13.01,2013-09-12 12:07:00,
2013-09-12 08:12:00,70.1,69.2,29.83,SE,143,0.0,0.0,97,0.00,,,0.01,VWS V13.01,2013-09-12 12:12:00,
2013-09-12 08:17:00,70.0,69.1,29.83,SE,143,0.0,0.0,97,0.00,,,0.01,VWS V13.01,2013-09-12 12:17:00,
2013-09-12 08:22:00,70.0,69.1,29.83,SE,143,0.0,0.0,97,0.00,,,0.01,VWS V13.01,2013-09-12 12:22:00,
2013-09-12 08:27:00,70.1,69.2,29.82,SE,143,0.0,0.0,97,0.00,,,0.01,VWS V13.01,2013-09-12 12:27:00,
2013-09-12 08:32:00,70.1,69.2,29.82,SE,143,0.0,0.0,97,0.00,,,0.01,VWS V13.01,2013-09-12 12:32:00,
2013-09-12 08:37:00,70.2,69.3,29.82,SE,143,0.0,0.0,97,0.00,,,0.01,VWS V13.01,2013-09-12 12:37:00,
2013-09-12 08:42:00,70.3,69.4,29.82,SE,143,0.0,1.0,97,0.00,,,0.01,VWS V13.01,2013-09-12 12:42:00,
2013-09-12 08:47:00,70.3,69.4,29.83,SE,143,0.0,1.0,97,0.00,,,0.01,VWS V13.01,2013-09-12 12:47:00,
2013-09-12 08:52:00,70.3,69.4,29.83,South,180,0.0,2.0,97,0.00,,,0.01,VWS V13.01,2013-09-12 12:52:00,
2013-09-12 08:57:00,70.4,69.5,29.82,WSW,254,0.0,4.0,97,0.00,,,0.01,VWS V13.01,2013-09-12 12:57:00,
2013-09-12 09:02:00,70.4,69.5,29.82,WSW,254,0.0,1.0,97,0.00,,-RA,0.01,VWS V13.01,2013-09-12 13:02:00,
2013-09-12 09:07:00,70.2,69.3,29.82,West,261,0.0,3.0,97,0.00,,-RA,0.01,VWS V13.01,2013-09-12 13:07:00,
2013-09-12 09:12:00,69.9,69.0,29.82,SW,224,1.0,3.0,97,0.00,,-RA,0.01,VWS V13.01,2013-09-12 13:12:00,
2013-09-12 09:17:00,69.4,68.5,29.82,NW,313,0.0,3.0,97,0.00,,-RA,0.01,VWS V13.01,2013-09-12 13:17:00,
2013-09-12 09:22:00,69.2,68.3,29.82,NW,308,0.0,3.0,97,0.00,,-RA,0.01,VWS V13.01,2013-09-12 13:22:00,
2013-09-12 09:27:00,69.2,68.0,29.82,NW,308,0.0,3.0,96,0.00,,-RA,0.01,VWS V13.01,2013-09-12 13:27:00,
2013-09-12 09:32:00,69.2,68.0,29.82,NW,308,0.0,0.0,96,0.00,,-RA,0.01,VWS V13.01,2013-09-12 13:32:00,
2013-09-12 09:37:00,69.2,68.0,29.82,NW,308,0.0,0.0,96,0.01,,-RA,0.02,VWS V13.01,2013-09-12 13:37:00,
2013-09-12 09:42:00,69.3,68.1,29.82,NW,308,0.0,1.0,96,0.02,,-RA,0.03,VWS V13.01,2013-09-12 13:42:00,
2013-09-12 09:47:00,69.2,68.0,29.82,NW,308,0.0,1.0,96,0.02,,-RA,0.03,VWS V13.01,2013-09-12 13:47:00,
2013-09-12 09:52:00,69.1,67.9,29.82,NW,308,0.0,1.0,96,0.03,,-RA,0.04,VWS V13.01,2013-09-12 13:52:00,
2013-09-12 09:57:00,69.1,68.2,29.82,NW,308,0.0,1.0,97,0.03,,-RA,0.04,VWS V13.01,2013-09-12 13:57:00,
2013-09-12 10:03:00,69.3,68.4,29.82,NW,308,0.0,0.0,97,0.03,,-RA,0.04,VWS V13.01,2013-09-12 14:03:00,
2013-09-12 10:08:00,69.3,68.4,29.82,NW,308,0.0,0.0,97,0.03,,-RA,0.04,VWS V13.01,2013-09-12 14:08:00,
2013-09-12 10:13:00,69.4,68.5,29.82,NW,308,0.0,0.0,97,0.03,,-RA,0.04,VWS V13.01,2013-09-12 14:13:00,
2013-09-12 10:18:00,69.6,68.7,29.82,NW,308,0.0,0.0,97,0.03,,-RA,0.04,VWS V13.01,2013-09-12 14:18:00,
2013-09-12 10:23:00,69.7,68.8,29.82,NW,308,0.0,0.0,97,0.04,,-RA,0.05,VWS V13.01,2013-09-12 14:23:00,
2013-09-12 10:28:00,69.7,68.8,29.82,NW,308,0.0,0.0,97,0.04,,-RA,0.05,VWS V13.01,2013-09-12 14:28:00,
2013-09-12 10:33:00,69.7,68.8,29.81,NW,308,0.0,0.0,97,0.04,,-RA,0.05,VWS V13.01,2013-09-12 14:33:00,
2013-09-12 10:38:00,69.7,68.8,29.81,NW,308,0.0,0.0,97,0.04,,-RA,0.05,VWS V13.01,2013-09-12 14:38:00,
2013-09-12 10:43:00,69.8,68.9,29.81,NW,308,0.0,0.0,97,0.05,,-RA,0.06,VWS V13.01,2013-09-12 14:43:00,
2013-09-12 10:48:00,69.8,68.9,29.81,NW,308,0.0,0.0,97,0.05,,-RA,0.06,VWS V13.01,2013-09-12 14:48:00,
2013-09-12 10:53:00,69.9,69.0,29.81,NW,308,0.0,0.0,97,0.05,,-RA,0.06,VWS V13.01,2013-09-12 14:53:00,
2013-09-12 10:58:00,69.9,69.0,29.81,NW,308,0.0,0.0,97,0.05,,-RA,0.06,VWS V13.01,2013-09-12 14:58:00,
2013-09-12 11:03:00,69.7,68.8,29.81,NW,308,0.0,0.0,97,0.02,,-RA,0.06,VWS V13.01,2013-09-12 15:03:00,
2013-09-12 11:08:00,69.7,68.8,29.81,NW,308,0.0,0.0,97,0.03,,-RA,0.07,VWS V13.01,2013-09-12 15:08:00,
2013-09-12 11:13:00,69.7,68.8,29.80,NW,308,0.0,1.0,97,0.03,,-RA,0.07,VWS V13.01,2013-09-12 15:13:00,
2013-09-12 11:18:00,69.8,68.9,29.81,NW,308,0.0,1.0,97,0.03,,-RA,0.07,VWS V13.01,2013-09-12 15:18:00,
2013-09-12 11:23:00,69.9,69.0,29.81,NW,308,0.0,1.0,97,0.03,,-RA,0.07,VWS V13.01,2013-09-12 15:23:00,
2013-09-12 11:28:00,69.9,69.0,29.81,NW,308,0.0,1.0,97,0.03,,-RA,0.07,VWS V13.01,2013-09-12 15:28:00,
2013-09-12 11:33:00,70.0,69.1,29.81,WSW,238,0.0,0.0,97,0.02,,-RA,0.07,VWS V13.01,2013-09-12 15:33:00,
2013-09-12 11:38:00,70.0,69.1,29.81,WSW,238,0.0,1.0,97,0.02,,-RA,0.07,VWS V13.01,2013-09-12 15:38:00,
2013-09-12 11:43:00,70.1,69.2,29.81,WSW,238,0.0,1.0,97,0.02,,-RA,0.07,VWS V13.01,2013-09-12 15:43:00,
2013-09-12 11:48:00,69.8,68.9,29.82,WSW,238,0.0,3.0,97,0.02,,-RA,0.07,VWS V13.01,2013-09-12 15:48:00,
2013-09-12 11:53:00,69.1,68.2,29.81,NE,37,0.0,3.0,97,0.02,,-RA,0.07,VWS V13.01,2013-09-12 15:53:00,
2013-09-12 11:58:00,68.5,67.3,29.81,NE,37,0.0,3.0,96,0.02,,-RA,0.07,VWS V13.01,2013-09-12 15:58:00,
2013-09-12 12:03:00,68.3,67.1,29.82,NE,37,0.0,1.0,96,0.01,,OVC100,0.07,VWS V13.01,2013-09-12 16:03:00,
2013-09-12 12:08:00,68.1,66.9,29.81,WSW,250,1.0,2.0,96,0.01,,OVC100,0.07,VWS V13.01,2013-09-12 16:08:00,
2013-09-12 12:13:00,67.9,66.7,29.81,SW,227,0.0,2.0,96,0.01,,OVC100,0.07,VWS V13.01,2013-09-12 16:13:00,
2013-09-12 12:18:00,67.8,66.6,29.80,SW,214,0.0,2.0,96,0.01,,OVC100,0.07,VWS V13.01,2013-09-12 16:18:00,
2013-09-12 12:23:00,67.9,66.7,29.80,SW,214,0.0,2.0,96,0.01,,OVC100,0.07,VWS V13.01,2013-09-12 16:23:00,
2013-09-12 12:28:00,68.0,66.8,29.80,SW,216,0.0,2.0,96,0.01,,OVC100,0.07,VWS V13.01,2013-09-12 16:28:00,
2013-09-12 12:33:00,68.4,67.2,29.79,SW,216,0.0,0.0,96,0.00,,OVC100,0.07,VWS V13.01,2013-09-12 16:33:00,
2013-09-12 12:38:00,68.7,67.5,29.79,SW,216,0.0,1.0,96,0.00,,OVC100,0.07,VWS V13.01,2013-09-12 16:38:00,
2013-09-12 12:44:00,69.0,67.8,29.79,SW,216,0.0,1.0,96,0.00,,OVC100,0.07,VWS V13.01,2013-09-12 16:44:00,
2013-09-12 12:49:00,69.2,67.7,29.79,SW,216,0.0,1.0,95,0.00,,OVC100,0.07,VWS V13.01,2013-09-12 16:49:00,
2013-09-12 12:54:00,69.3,67.8,29.79,SW,216,0.0,1.0,95,0.00,,OVC100,0.07,VWS V13.01,2013-09-12 16:54:00,
2013-09-12 12:59:00,69.5,68.0,29.79,SW,216,0.0,1.0,95,0.00,,OVC100,0.07,VWS V13.01,2013-09-12 16:59:00,
2013-09-12 13:04:00,69.8,68.3,29.78,SW,217,0.0,1.0,95,0.00,,FEW110,0.07,VWS V13.01,2013-09-12 17:04:00,
2013-09-12 13:09:00,70.3,68.8,29.78,South,181,0.0,4.0,95,0.00,,FEW110,0.07,VWS V13.01,2013-09-12 17:09:00,
2013-09-12 13:14:00,70.6,68.8,29.78,South,184,1.0,4.0,94,0.00,,FEW110,0.07,VWS V13.01,2013-09-12 17:14:00,
2013-09-12 13:19:00,71.0,68.9,29.78,SSW,192,0.0,4.0,93,0.00,,FEW110,0.07,VWS V13.01,2013-09-12 17:19:00,
2013-09-12 13:24:00,71.4,69.3,29.78,NW,307,0.0,4.0,93,0.00,,FEW110,0.07,VWS V13.01,2013-09-12 17:24:00,
2013-09-12 13:29:00,72.0,69.9,29.78,NW,307,0.0,4.0,93,0.00,,FEW110,0.07,VWS V13.01,2013-09-12 17:29:00,
2013-09-12 13:34:00,72.5,70.1,29.78,SW,236,1.0,1.0,92,0.00,,FEW110,0.07,VWS V13.01,2013-09-12 17:34:00,
2013-09-12 13:39:00,72.4,69.3,29.78,West,275,1.0,5.0,90,0.00,,FEW110,0.07,VWS V13.01,2013-09-12 17:39:00,
2013-09-12 13:44:00,72.4,69.3,29.78,West,262,0.0,5.0,90,0.00,,FEW110,0.07,VWS V13.01,2013-09-12 17:44:00,
2013-09-12 13:49:00,72.5,69.4,29.78,WNW,297,1.0,5.0,90,0.00,,BKN020,0.07,VWS V13.01,2013-09-12 17:49:00,
2013-09-12 13:54:00,72.5,69.1,29.77,East,94,1.0,5.0,89,0.00,,BKN020,0.07,VWS V13.01,2013-09-12 17:54:00,
2013-09-12 13:59:00,72.5,69.1,29.77,WSW,257,0.0,5.0,89,0.00,,BKN020,0.07,VWS V13.01,2013-09-12 17:59:00,
2013-09-12 14:04:00,72.5,68.8,29.77,NNE,29,2.0,5.0,88,0.00,,SCT020,0.07,VWS V13.01,2013-09-12 18:04:00,
2013-09-12 14:09:00,72.4,68.7,29.77,ESE,115,0.0,5.0,88,0.00,,SCT020,0.07,VWS V13.01,2013-09-12 18:09:00,
2013-09-12 14:14:00,72.3,68.6,29.77,SW,229,2.0,7.0,88,0.00,,SCT020,0.07,VWS V13.01,2013-09-12 18:14:00,
2013-09-12 14:19:00,72.5,69.1,29.77,West,267,0.0,7.0,89,0.00,,SCT020,0.07,VWS V13.01,2013-09-12 18:19:00,
2013-09-12 14:24:00,72.6,69.2,29.77,West,267,0.0,7.0,89,0.00,,SCT020,0.07,VWS V13.01,2013-09-12 18:24:00,
2013-09-12 14:29:00,72.6,69.2,29.77,WSW,242,0.0,7.0,89,0.00,,SCT020,0.07,VWS V13.01,2013-09-12 18:29:00,
2013-09-12 14:34:00,72.4,69.3,29.77,NW,310,1.0,3.0,90,0.00,,SCT020,0.07,VWS V13.01,2013-09-12 18:34:00,
2013-09-12 14:39:00,72.1,69.3,29.76,SSW,205,0.0,3.0,91,0.00,,SCT020,0.07,VWS V13.01,2013-09-12 18:39:00,
2013-09-12 14:44:00,71.7,69.3,29.76,NW,316,1.0,4.0,92,0.01,,SCT020,0.08,VWS V13.01,2013-09-12 18:44:00,
2013-09-12 14:49:00,71.4,69.3,29.76,West,265,0.0,4.0,93,0.01,,-RA,0.08,VWS V13.01,2013-09-12 18:49:00,
2013-09-12 14:54:00,71.3,69.5,29.76,South,188,1.0,4.0,94,0.01,,-RA,0.08,VWS V13.01,2013-09-12 18:54:00,
2013-09-12 14:59:00,71.3,69.5,29.76,SSW,194,0.0,4.0,94,0.01,,-RA,0.08,VWS V13.01,2013-09-12 18:59:00,
2013-09-12 15:04:00,71.1,69.3,29.76,SSW,205,0.0,4.0,94,0.01,,-RA,0.08,VWS V13.01,2013-09-12 19:04:00,
2013-09-12 15:09:00,70.8,69.0,29.76,SW,215,0.0,6.0,94,0.03,,-RA,0.11,VWS V13.01,2013-09-12 19:09:00,
2013-09-12 15:14:00,70.7,69.2,29.76,SW,215,0.0,6.0,95,0.04,,-RA,0.11,VWS V13.01,2013-09-12 19:14:00,
2013-09-12 15:19:00,70.6,69.1,29.75,SW,215,0.0,6.0,95,0.04,, +RA,0.11,VWS V13.01,2013-09-12 19:19:00,
2013-09-12 15:24:00,70.4,68.9,29.75,SSW,202,0.0,6.0,95,0.04,, +RA,0.11,VWS V13.01,2013-09-12 19:24:00,
2013-09-12 15:29:00,70.1,68.6,29.76,NNE,25,0.0,9.0,95,0.04,, +RA,0.11,VWS V13.01,2013-09-12 19:29:00,
2013-09-12 15:34:00,69.8,68.3,29.75,North,355,1.0,5.0,95,0.04,,-RA,0.11,VWS V13.01,2013-09-12 19:34:00,
2013-09-12 15:39:00,69.6,68.4,29.75,NNE,13,4.0,5.0,96,0.04,,-RA,0.11,VWS V13.01,2013-09-12 19:39:00,
2013-09-12 15:44:00,69.5,68.3,29.75,SW,225,3.0,5.0,96,0.04,,-RA,0.11,VWS V13.01,2013-09-12 19:44:00,
2013-09-12 15:49:00,69.4,68.2,29.75,SW,234,0.0,5.0,96,0.04,,-RA,0.11,VWS V13.01,2013-09-12 19:49:00,
2013-09-12 15:54:00,69.4,68.2,29.75,West,259,1.0,5.0,96,0.04,,-RA,0.11,VWS V13.01,2013-09-12 19:54:00,
2013-09-12 15:59:00,69.4,68.2,29.75,SW,227,0.0,5.0,96,0.04,,-RA,0.11,VWS V13.01,2013-09-12 19:59:00,
2013-09-12 16:04:00,68.9,67.7,29.75,SW,228,0.0,7.0,96,0.03,,,0.11,VWS V13.01,2013-09-12 20:04:00,
2013-09-12 16:10:00,68.7,67.5,29.75,WNW,283,0.0,7.0,96,0.03,,,0.11,VWS V13.01,2013-09-12 20:10:00,
2013-09-12 16:15:00,68.5,67.3,29.75,WNW,299,2.0,7.0,96,0.03,,,0.11,VWS V13.01,2013-09-12 20:15:00,
2013-09-12 16:20:00,68.2,66.7,29.75,NW,311,0.0,11.0,95,0.03,,OVC027,0.11,VWS V13.01,2013-09-12 20:20:00,
2013-09-12 16:25:00,68.0,66.5,29.75,NNW,333,1.0,11.0,95,0.03,,OVC027,0.11,VWS V13.01,2013-09-12 20:25:00,
2013-09-12 16:30:00,67.7,65.9,29.74,West,265,0.0,11.0,94,0.03,,OVC027,0.11,VWS V13.01,2013-09-12 20:30:00,
2013-09-12 16:35:00,67.6,65.8,29.75,West,259,0.0,3.0,94,0.00,,OVC025,0.11,VWS V13.01,2013-09-12 20:35:00,
2013-09-12 16:40:00,67.3,65.5,29.75,North,350,0.0,3.0,94,0.00,,OVC025,0.11,VWS V13.01,2013-09-12 20:40:00,
2013-09-12 16:45:00,67.1,65.3,29.75,WSW,240,0.0,4.0,94,0.00,,OVC025,0.11,VWS V13.01,2013-09-12 20:45:00,
2013-09-12 16:50:00,67.1,65.0,29.75,NNW,347,1.0,12.0,93,0.00,,OVC025,0.11,VWS V13.01,2013-09-12 20:50:00,
2013-09-12 16:55:00,67.2,64.8,29.75,North,5,4.0,12.0,92,0.00,,OVC025,0.11,VWS V13.01,2013-09-12 20:55:00,
2013-09-12 17:00:00,67.4,64.7,29.75,West,261,1.0,12.0,91,0.00,,OVC025,0.11,VWS V13.01,2013-09-12 21:00:00,
2013-09-12 17:05:00,67.8,65.1,29.76,NW,306,0.0,7.0,91,0.00,,OVC037,0.11,VWS V13.01,2013-09-12 21:05:00,
2013-09-12 17:10:00,68.0,65.0,29.75,West,269,0.0,7.0,90,0.00,,OVC037,0.11,VWS V13.01,2013-09-12 21:10:00,
2013-09-12 17:15:00,68.0,64.0,29.75,NNE,27,5.0,12.0,87,0.00,,BKN080,0.11,VWS V13.01,2013-09-12 21:15:00,
2013-09-12 17:20:00,68.3,64.0,29.75,NW,304,1.0,12.0,86,0.00,,BKN080,0.11,VWS V13.01,2013-09-12 21:20:00,
2013-09-12 17:25:00,68.4,63.7,29.75,NNW,336,0.0,12.0,85,0.00,,BKN080,0.11,VWS V13.01,2013-09-12 21:25:00,
2013-09-12 17:30:00,68.5,63.5,29.75,West,266,0.0,12.0,84,0.00,,BKN080,0.11,VWS V13.01,2013-09-12 21:30:00,
2013-09-12 17:35:00,68.6,63.6,29.75,West,279,1.0,6.0,84,0.00,,BKN080,0.11,VWS V13.01,2013-09-12 21:35:00,
2013-09-12 17:40:00,68.7,63.7,29.75,WNW,283,6.0,6.0,84,0.00,,BKN080,0.11,VWS V13.01,2013-09-12 21:40:00,
2013-09-12 17:45:00,68.7,63.3,29.76,NW,317,3.0,10.0,83,0.00,,BKN080,0.11,VWS V13.01,2013-09-12 21:45:00,
2013-09-12 17:50:00,68.7,63.3,29.76,SW,215,0.0,10.0,83,0.00,,BKN080,0.11,VWS V13.01,2013-09-12 21:50:00,
2013-09-12 17:55:00,68.6,62.9,29.75,ENE,78,0.0,10.0,82,0.00,,BKN080,0.11,VWS V13.01,2013-09-12 21:55:00,
2013-09-12 18:00:00,68.6,62.9,29.75,North,350,0.0,10.0,82,0.00,,CLR,0.11,VWS V13.01,2013-09-12 22:00:00,
2013-09-12 18:05:00,68.6,63.2,29.76,WNW,290,0.0,3.0,83,0.00,,CLR,0.11,VWS V13.01,2013-09-12 22:05:00,
2013-09-12 18:10:00,68.5,63.1,29.76,WNW,290,3.0,9.0,83,0.00,,CLR,0.11,VWS V13.01,2013-09-12 22:10:00,
2013-09-12 18:15:00,68.5,63.1,29.75,West,274,0.0,9.0,83,0.00,,CLR,0.11,VWS V13.01,2013-09-12 22:15:00,
2013-09-12 18:20:00,68.5,63.1,29.75,North,350,1.0,9.0,83,0.00,,CLR,0.11,VWS V13.01,2013-09-12 22:20:00,
2013-09-12 18:25:00,68.4,62.3,29.76,NNW,328,0.0,9.0,81,0.00,,CLR,0.11,VWS V13.01,2013-09-12 22:25:00,
2013-09-12 18:30:00,68.3,62.2,29.76,WSW,254,2.0,9.0,81,0.00,,CLR,0.11,VWS V13.01,2013-09-12 22:30:00,
2013-09-12 18:35:00,68.3,62.2,29.76,West,267,4.0,4.0,81,0.00,,CLR,0.11,VWS V13.01,2013-09-12 22:35:00,
2013-09-12 18:40:00,68.2,62.2,29.76,North,351,0.0,4.0,81,0.00,,CLR,0.11,VWS V13.01,2013-09-12 22:40:00,
2013-09-12 18:45:00,68.0,61.2,29.75,West,272,0.0,4.0,79,0.00,,CLR,0.11,VWS V13.01,2013-09-12 22:45:00,
2013-09-12 18:50:00,67.8,61.4,29.76,WSW,248,0.0,4.0,80,0.00,,CLR,0.11,VWS V13.01,2013-09-12 22:50:00,
2013-09-12 18:55:00,67.7,60.6,29.75,WSW,251,0.0,5.0,78,0.00,,CLR,0.11,VWS V13.01,2013-09-12 22:55:00,
2013-09-12 19:00:00,67.6,60.5,29.76,West,267,0.0,5.0,78,0.00,,CLR,0.11,VWS V13.01,2013-09-12 23:00:00,
2013-09-12 19:05:00,67.4,60.7,29.76,West,273,0.0,2.0,79,0.00,,CLR,0.11,VWS V13.01,2013-09-12 23:05:00,
2013-09-12 19:10:00,67.2,60.1,29.76,West,267,0.0,2.0,78,0.00,,CLR,0.11,VWS V13.01,2013-09-12 23:10:00,
2013-09-12 19:15:00,67.1,60.4,29.76,West,267,0.0,2.0,79,0.00,,CLR,0.11,VWS V13.01,2013-09-12 23:15:00,
2013-09-12 19:20:00,66.9,60.2,29.76,West,267,0.0,2.0,79,0.00,,CLR,0.11,VWS V13.01,2013-09-12 23:20:00,
2013-09-12 19:25:00,66.8,60.4,29.76,NW,312,0.0,5.0,80,0.00,,CLR,0.11,VWS V13.01,2013-09-12 23:25:00,
2013-09-12 19:30:00,66.7,60.3,29.76,NW,311,0.0,5.0,80,0.00,,CLR,0.11,VWS V13.01,2013-09-12 23:30:00,
2013-09-12 19:36:00,66.6,59.9,29.76,NW,326,0.0,3.0,79,0.00,,CLR,0.11,VWS V13.01,2013-09-12 23:36:00,
2013-09-12 19:41:00,66.5,59.1,29.76,NNW,343,1.0,5.0,77,0.00,,CLR,0.11,VWS V13.01,2013-09-12 23:41:00,
2013-09-12 19:46:00,66.6,58.4,29.76,SSW,205,1.0,7.0,75,0.00,,CLR,0.11,VWS V13.01,2013-09-12 23:46:00,
2013-09-12 19:51:00,66.7,58.5,29.76,North,10,0.0,7.0,75,0.00,,CLR,0.11,VWS V13.01,2013-09-12 23:51:00,
2013-09-12 19:56:00,66.8,58.6,29.76,NNW,331,3.0,7.0,75,0.00,,CLR,0.11,VWS V13.01,2013-09-12 23:56:00,
2013-09-12 20:01:00,66.7,58.9,29.76,SW,221,0.0,0.0,76,0.00,,SCT100,0.11,VWS V13.01,2013-09-13 00:01:00,
2013-09-12 20:06:00,66.5,58.7,29.77,WNW,285,0.0,4.0,76,0.00,,SCT100,0.11,VWS V13.01,2013-09-13 00:06:00,
2013-09-12 20:11:00,66.4,59.0,29.77,WNW,285,0.0,4.0,77,0.00,,SCT100,0.11,VWS V13.01,2013-09-13 00:11:00,
2013-09-12 20:16:00,66.3,58.5,29.77,WNW,283,1.0,8.0,76,0.00,,SCT100,0.11,VWS V13.01,2013-09-13 00:16:00,
2013-09-12 20:21:00,66.4,58.2,29.77,NNW,348,1.0,10.0,75,0.00,,SCT100,0.11,VWS V13.01,2013-09-13 00:21:00,
2013-09-12 20:26:00,66.5,58.3,29.77,South,175,0.0,10.0,75,0.00,,SCT100,0.11,VWS V13.01,2013-09-13 00:26:00,
2013-09-12 20:31:00,66.7,58.5,29.77,North,355,0.0,2.0,75,0.00,,SCT100,0.11,VWS V13.01,2013-09-13 00:31:00,
2013-09-12 20:36:00,66.7,58.2,29.77,NNW,327,0.0,5.0,74,0.00,,SCT100,0.11,VWS V13.01,2013-09-13 00:36:00,
2013-09-12 20:41:00,66.7,58.2,29.77,North,350,0.0,8.0,74,0.00,,SCT100,0.11,VWS V13.01,2013-09-13 00:41:00,
2013-09-12 20:46:00,66.5,58.0,29.77,West,269,3.0,8.0,74,0.00,,SCT100,0.11,VWS V13.01,2013-09-13 00:46:00,
2013-09-12 20:51:00,66.6,58.4,29.77,NNW,343,1.0,8.0,75,0.00,,SCT100,0.11,VWS V13.01,2013-09-13 00:51:00,
2013-09-12 20:56:00,66.5,58.0,29.77,NNW,331,0.0,8.0,74,0.00,,SCT100,0.11,VWS V13.01,2013-09-13 00:56:00,
2013-09-12 21:01:00,66.4,57.9,29.77,North,11,0.0,1.0,74,0.00,,CLR,0.11,VWS V13.01,2013-09-13 01:01:00,
2013-09-12 21:06:00,66.3,57.4,29.77,West,267,0.0,5.0,73,0.00,,CLR,0.11,VWS V13.01,2013-09-13 01:06:00,
2013-09-12 21:11:00,66.3,57.4,29.78,NNW,333,0.0,5.0,73,0.00,,CLR,0.11,VWS V13.01,2013-09-13 01:11:00,
2013-09-12 21:16:00,66.3,57.8,29.78,NNW,340,0.0,5.0,74,0.00,,CLR,0.11,VWS V13.01,2013-09-13 01:16:00,
2013-09-12 21:21:00,66.1,58.0,29.78,WNW,298,0.0,5.0,75,0.00,,CLR,0.11,VWS V13.01,2013-09-13 01:21:00,
2013-09-12 21:26:00,66.0,58.2,29.77,NW,304,3.0,5.0,76,0.00,,CLR,0.11,VWS V13.01,2013-09-13 01:26:00,
2013-09-12 21:31:00,65.8,58.0,29.77,North,355,3.0,3.0,76,0.00,,CLR,0.11,VWS V13.01,2013-09-13 01:31:00,
2013-09-12 21:36:00,65.7,58.3,29.77,SSE,163,0.0,3.0,77,0.00,,CLR,0.11,VWS V13.01,2013-09-13 01:36:00,
2013-09-12 21:41:00,65.6,58.2,29.77,North,360,0.0,5.0,77,0.00,,CLR,0.11,VWS V13.01,2013-09-13 01:41:00,
2013-09-12 21:46:00,65.6,58.2,29.77,NW,313,0.0,5.0,77,0.00,,CLR,0.11,VWS V13.01,2013-09-13 01:46:00,
2013-09-12 21:51:00,65.5,57.7,29.77,NNW,338,0.0,7.0,76,0.00,,CLR,0.11,VWS V13.01,2013-09-13 01:51:00,
2013-09-12 21:56:00,65.5,57.4,29.77,NNW,346,1.0,11.0,75,0.00,,CLR,0.11,VWS V13.01,2013-09-13 01:56:00,
2013-09-12 22:01:00,65.5,57.4,29.77,North,350,2.0,2.0,75,0.00,,CLR,0.11,VWS V13.01,2013-09-13 02:01:00,
2013-09-12 22:07:00,65.5,57.0,29.78,NNE,27,0.0,6.0,74,0.00,,CLR,0.11,VWS V13.01,2013-09-13 02:07:00,
2013-09-12 22:12:00,65.6,56.7,29.78,West,276,3.0,10.0,73,0.00,,CLR,0.11,VWS V13.01,2013-09-13 02:12:00,
2013-09-12 22:17:00,65.8,56.5,29.78,NNW,338,1.0,10.0,72,0.00,,CLR,0.11,VWS V13.01,2013-09-13 02:17:00,
2013-09-12 22:22:00,65.9,56.2,29.77,NE,51,3.0,12.0,71,0.00,,CLR,0.11,VWS V13.01,2013-09-13 02:22:00,
2013-09-12 22:27:00,65.9,56.2,29.77,West,278,1.0,12.0,71,0.00,,CLR,0.11,VWS V13.01,2013-09-13 02:27:00,
2013-09-12 22:32:00,65.9,56.6,29.77,WSW,239,6.0,6.0,72,0.00,,CLR,0.11,VWS V13.01,2013-09-13 02:32:00,
2013-09-12 22:37:00,65.8,56.9,29.77,North,355,6.0,7.0,73,0.00,,CLR,0.11,VWS V13.01,2013-09-13 02:37:00,
2013-09-12 22:42:00,65.7,56.8,29.78,WNW,284,1.0,7.0,73,0.00,,CLR,0.11,VWS V13.01,2013-09-13 02:42:00,
2013-09-12 22:47:00,65.7,57.2,29.78,North,360,0.0,7.0,74,0.00,,CLR,0.11,VWS V13.01,2013-09-13 02:47:00,
2013-09-12 22:52:00,65.6,57.5,29.78,NNW,329,0.0,7.0,75,0.00,,CLR,0.11,VWS V13.01,2013-09-13 02:52:00,
2013-09-12 22:57:00,65.5,58.5,29.78,WNW,285,3.0,7.0,78,0.00,,CLR,0.11,VWS V13.01,2013-09-13 02:57:00,
2013-09-12 23:02:00,65.3,58.3,29.78,West,277,3.0,5.0,78,0.00,,-RA,0.11,VWS V13.01,2013-09-13 03:02:00,
2013-09-12 23:07:00,65.0,58.0,29.78,West,273,0.0,10.0,78,0.00,,-RA,0.11,VWS V13.01,2013-09-13 03:07:00,
2013-09-12 23:12:00,64.8,58.1,29.78,NW,313,2.0,10.0,79,0.00,,-RA,0.11,VWS V13.01,2013-09-13 03:12:00,
2013-09-12 23:17:00,64.7,57.7,29.79,WNW,302,1.0,11.0,78,0.00,,-RA,0.11,VWS V13.01,2013-09-13 03:17:00,
2013-09-12 23:22:00,64.6,57.6,29.79,NNW,346,0.0,11.0,78,0.00,,-RA,0.11,VWS V13.01,2013-09-13 03:22:00,
2013-09-12 23:27:00,64.5,57.8,29.78,NNW,346,0.0,11.0,79,0.00,,-RA,0.11,VWS V13.01,2013-09-13 03:27:00,
2013-09-12 23:32:00,64.4,58.1,29.78,WNW,294,1.0,2.0,80,0.00,,-RA,0.11,VWS V13.01,2013-09-13 03:32:00,
2013-09-12 23:37:00,64.3,58.0,29.78,WNW,296,1.0,7.0,80,0.00,,-RA,0.11,VWS V13.01,2013-09-13 03:37:00,
2013-09-12 23:42:00,64.2,57.9,29.78,NW,304,1.0,10.0,80,0.00,,-RA,0.11,VWS V13.01,2013-09-13 03:42:00,
2013-09-12 23:47:00,64.0,57.7,29.77,West,281,0.0,10.0,80,0.00,,-RA,0.11,VWS V13.01,2013-09-13 03:47:00,
2013-09-12 23:52:00,63.9,58.0,29.77,WSW,240,0.0,10.0,81,0.00,,-RA,0.11,VWS V13.01,2013-09-13 03:52:00,
2013-09-12 23:57:00,63.7,57.8,29.76,WSW,240,0.0,10.0,81,0.00,,-RA,0.11,VWS V13.01,2013-09-13 03:57:00,